Regional Weather Roundup
Issued by NWS Grand Forks, ND

Home | Current Version | Previous Version | Text Only | Print | Product List | Glossary Off
Versions: 1 2 3 4 5 6 7 8 9 10 11 12 13 14 15 16 17 18 19 20 21 22 23 24 25 26 27 28 29 30 31 32 33 34 35 36 37 38 39 40 41 42 43 44 45 46 47 48 49 50

095
ASUS43 KFGF 241031
RWRFGF
PRAIRIE TO PINES  WEATHER ROUNDUP
NATIONAL WEATHER SERVICE EASTERN NORTH DAKOTA/GRAND FORKS ND
500 AM CDT MON APR 24 2017

 **SATELLITE DATA USED TO AUGMENT SKY COVER AT AUTOMATED STATIONS**
 *****  WEATHER ACROSS EASTERN NORTH DAKOTA  *****

CITY           SKY/WX    TMP DP  RH WIND       PRES   REMARKS
GRAND FORKS    FAIR      35  33  92 NE13      29.77F
GRAND FRKS AFB CLOUDY    33  31  91 E12       29.78F WCI  24
DEVILS LAKE    CLOUDY    30  27  88 E23G30    29.76F WCI  17
FARGO          FAIR      36  30  79 E10       29.69F
WAHPETON ARPT  FAIR      37  32  81 E13       29.66F
$$

 ***** WEATHER ACROSS CENTRAL AND WESTERN NORTH DAKOTA  *****

CITY           SKY/WX    TMP DP  RH WIND       PRES   REMARKS
BISMARCK       LGT RAIN  33  32  96 NE15      29.67F WCI  23
MINOT          FLURRIES  30  27  88 NE12      29.77F WCI  20
JAMESTOWN      CLOUDY    33  31  92 NE9       29.69S
MINOT AFB      CLOUDY    28  27  93 NE12      29.75F WCI  18
GARRISON         N/A     29  28  96 E14       29.70F WCI  18
WILLISTON      FLURRIES  32  29  88 E5        29.73S
DICKINSON      FRZ RAIN  28  28 100 NE10      29.64R VSB 1/4 WCI  19
HETTINGER      FRZ RAIN  31  29  92 N6        29.67R
$$

 *****  OTHER AIRPORT OBSERVATIONS IN OUR AREA  *****

CITY           SKY/WX    TMP DP  RH WIND       PRES   REMARKS
WALHALLA       NOT AVBL
GRAFTON AIRPOR CLOUDY    34  30  86 E14G22    29.83F WCI  24
VALLEY CITY AR PTSUNNY   32  32 100 NE9G16    29.69F WCI  24
CANDO          NOT AVBL
CAVALIER APRT  FAIR      34  23  64 E13       29.84F WCI  25
GWINNER        SUNNY     36  34  93 MISG      29.62F
SHEYENNE NWR     N/A     35  31  85 E7        29.95S
ROLLA          CLOUDY    30  18  59 E16       29.81F WCI  19
 ***** THE ABOVE OBSERVATIONS ARE NON NWS ARE NOT QUALITY
       CONTROLLED AND MAY MIS-REPORT RAIN FOR SNOW...
$$

  *****  WEATHER ACROSS NORTHERN MINNESOTA  *****

CITY           SKY/WX    TMP DP  RH WIND       PRES   REMARKS
FLAG ISLAND    CLOUDY    34  14  44 E10G21    29.94S
WARROAD        FLURRIES  32  28  86 NE20G26   29.89F WCI  20
ROSEAU         MIX PCPN  34  28  80 E18G26    29.87F WCI  23
HALLOCK        CLOUDY    34  27  75 E14G22    29.84F WCI  24
THF RVR FALLS  CLOUDY    33  30  88 E18G24    29.79F WCI  22
BAUDETTE       FLURRIES  31  28  89 E16       29.88F WCI  20
WASKISH        CLOUDY    32  30  93 E14G22    29.86F WCI  22
CROOKSTON      FAIR      36  30  80 E18       29.77F
STEPHEN NDAWN    N/A     34  28  80 E15         N/A  WCI  24
GREENBUSH NDAW   N/A     32  28  86 E13         N/A  WCI  22
$$
  *****  WEATHER ACROSS CENTRAL AND WEST MINNESOTA  *****

CITY           SKY/WX    TMP DP  RH WIND       PRES   REMARKS
FOSSTON        MOCLDY    34  27  75 E15G23    29.76F WCI  24
BEMIDJI        CLOUDY    33  27  78 E14G21    29.80F WCI  23
PARK RAPIDS    MOCLDY    33  23  66 E10       29.77F WCI  25
ELBOW LAKE     FAIR      38  35  87 SE17      29.68F
WADENA         MOCLDY    32  27  80 E13       29.73F WCI  22
DETROIT LAKES  FAIR      34  28  80 SE16      29.71F WCI  23
MOORHEAD       FAIR      36  28  75 E8        29.70F
FERGUS FALLS   MOCLDY    37  30  75 E12G21    29.67F
MORRIS MN      FAIR      43  36  75 SE15      29.67F
STAPLES        FAIR      32  27  80 E8        29.76F WCI  25
$$
  *****  WEATHER ELSEWHERE ACROSS MINNESOTA  *****

CITY           SKY/WX    TMP DP  RH WIND       PRES   REMARKS
DULUTH         FAIR      31  27  85 E29G39    29.91F WCI  16
INTRNTL FALLS  LGT SNOW  32  29  88 E14G20    29.94F FOG     WCI  22
ELY            MOCLDY    28  25  86 E8        29.96F WCI  20
CLOQUET        FAIR      34  27  75 E14G23    29.88F WCI  24
WHEATON        FAIR      43  36  75 E15       29.66F
BRAINERD       FAIR      33  28  81 E6        29.81F
HIBBING        FAIR      30  23  75 E13       29.90F WCI  20
ALEXANDRIA     FAIR      35  32  88 E14       29.74F
SAINT CLOUD    FAIR      36  33  89 E6        29.80F
MINNEAPOLIS    FAIR      55  33  43 S9        29.82F
$$

  *****  WEATHER ACROSS SOUTH DAKOTA  *****

CITY           SKY/WX    TMP DP  RH WIND       PRES   REMARKS
SIOUX FALLS    CLOUDY    55  35  47 S18       29.69S
BROOKINGS      FAIR      53  35  50 S17G24    29.67F
WATERTOWN      FAIR      50  36  58 S14       29.63F
HURON          FAIR      52  37  56 SE13G22   29.58F
SISSETON         N/A     42  39  89 S3        29.63F
ABERDEEN       FAIR      40  36  86 NW7       29.58F
MITCHELL       FAIR      54  38  54 S16       29.61F
PIERRE         FAIR      40  37  89 NW3       29.53F
MOBRIDGE       CLOUDY    37  33  85 NE17G25   29.53F
RAPID CITY     CLOUDY    38  37  97 N15       29.59R
$$

  *****  SOME WEATHER IN NEARBY STATES *****

CITY           SKY/WX    TMP DP  RH WIND       PRES   REMARKS
GLASGOW MT     CLOUDY    32  30  92 E10       29.70S WCI  24
GREAT FALLS MT FAIR      38  35  89 SW9       29.66F
CHEYENNE WY    FAIR      47  35  63 NW17G26   29.70F
SCOTTSBLUFF NE FAIR      48  38  68 W8        29.62S
OMAHA NE       MOCLDY    54  36  50 S14       29.81F
DES MOINES IA  FAIR      49  33  54 S10       29.90S
DAVENPORT IA   FAIR      44  31  60 S8        29.97S
CHICAGO IL     FAIR      41  36  82 NE5       30.02R
EAU CLAIRE WI  FAIR      41  35  79 SE6       29.92F
LA CROSSE WI   FAIR      48  40  73 E10       29.92F
$$

  *****  SOME NATIONAL WEATHER *****

CITY           SKY/WX    TMP DP  RH WIND       PRES   REMARKS
LA GUARDIA NY  FAIR      48  44  86 NE5       30.12S
RALEIGH NC     FOG       54  53  97 NE10      29.88F VSB 1
ATLANTA GA     DRIZZLE   53  50  89 NE10      29.75S
NEW ORLEANS LA FAIR      53  50  89 W7        29.88R
OKLAHOMA CITY  FAIR      43  38  82 S8        29.92S
ALBUQUERQUE NM FAIR      55  31  39 SE7       29.90R
SALT LAKE CITY FAIR      49  38  65 SE8       29.74F
LOS ANGELES CA FAIR      59  52  77 W3        29.86F
BOISE ID       FAIR      48  39  71 SE6       29.71F
SEATTLE WA     LGT RAIN  45  44  97 S6        29.77S
$$

*** WEATHER ACROSS MANITOBA...SASKATCHEWAN AND ONTARIO ***
                ***ONTARIO***

CITY           SKY/WX    TMP DP  RH WIND       PRES   REMARKS
GERALDTON      CLEAR     18  10  73 E5        30.17F WCI  11
THUNDER BAY    LGT SNOW  30  28  93 E9        30.13F WCI  22
SIOUX LOOKOUT  PTCLDY    23  14  68 E6        30.06F WCI  16
TORONTO        MOCLDY    43  36  75 N6        30.14R
BIG TROUT LK   CLEAR      0  -4  85 NE5       30.30F WCI -10
PICKLE LAKE    NOT AVBL
DRYDEN         PTCLDY    25  16  68 E10       30.01F WCI  15
KENORA         MOCLDY    28  12  50 E12       29.97F WCI  18
$$
                *** MANITOBA***

CITY           SKY/WX    TMP DP  RH WIND       PRES   REMARKS
BRANDON        CLOUDY    30  21  69 E17G23    29.89F WCI  18
DAUPHIN        CLOUDY    30  25  80 E7        29.98F WCI  23
ISLAND LAKE    NOT AVBL
PILOT MOUND      N/A     30  18  59 E16         N/A  WCI  19
THE PAS        MOCLDY    23   7  50 E9        30.10S WCI  13
THOMPSON       CLEAR     -2 -11  65 NE2       30.26S
WINNIPEG       CLOUDY    32  16  51 E14       29.95F WCI  22
LYNN LAKE      CLEAR      0  -8  71 E6        30.20F WCI -12
CHURCHILL      PTCLDY   -15 -20  76 W7        30.41S WCI -31
GILLAM         CLEAR     -6 -11  77 E6        30.34F WCI -18
$$
                ***SASKATCHEWAN***

CITY           SKY/WX    TMP DP  RH WIND       PRES   REMARKS
ESTEVAN        LGT SNOW  28  25  86 E13G21    29.79F DRFTSNOWWCI  18
KINDERSLEY     CLOUDY    32  30  93 E12       29.71F WCI  23
LLOYDMINSTER   CLOUDY    30  30 100 SE9G17    29.77S WCI  22
PRINCE ALBERT  LGT SNOW  28  27  93 E15       29.91F WCI  17
REGINA         LGT SNOW  27  27 100 SE17G23   29.82F VSB 1   WCI  14
YORKTON        FLURRIES  28  25  86 E8        29.93S WCI  20
N. BATTLEFORD  CLOUDY    32  32 100 SE13      29.83S WCI  22
LA RONGE       MOCLDY    25  10  54 E7        30.01S WCI  17
SASKATOON      CLOUDY    32  28  86 SE18      29.85S WCI  20
SWIFT CURRENT  CLOUDY    30  30 100 E10       29.68F FOG     WCI  21
$$
NOTE: THESE ARE AUTOMATED STATIONS WITH LIMITED QUALITY CONTROL
      "FAIR" INDICATES FEW OR NO CLOUDS BELOW 12,000 FEET WITH NO
      SIGNIFICANT WEATHER AND/OR OBSTRUCTIONS TO VISIBILITY.
      SKY/WX - SKY CONDITION AND SIGNIFICANT WEATHER.
      TMP - AIR TEMPERATURE.    DP   - DEWPOINT TEMPERATURE.
      RH  - RELATIVE HUMIDITY.  PRES - PRESSURE.
      HX  - HEAT INDEX.         WCI  - WIND CHILL INDEX.
$




USA.gov is the U.S. government's official web portal to all federal, state and local government web resources and services.